Regional Weather Roundup
Issued by NWS

Home | Current Version | Previous Version | Graphics & Text | Print | Product List | Glossary On
Versions: 1 2 3 4 5 6 7 8 9 10 11 12 13 14 15 16 17 18 19 20 21 22 23 24 25 26 27 28 29 30 31 32 33 34 35 36 37 38 39 40 41 42 43 44 45 46 47 48 49 50
000
ASUS43 KLMK 310010
RWRKY
KENTUCKY REGIONAL WEATHER ROUNDUP
NATIONAL WEATHER SERVICE LOUISVILLE KY
800 PM EDT WED JUL 30 2014

NOTE "FAIR" INDICATES FEW OR NO CLOUDS BELOW 12,000 FEET
WITH NO SIGNIFICANT WEATHER AND/OR OBSTRUCTIONS TO VISIBILITY.

KYZ001>023-026-027-061>063-070>075-310100-
WESTERN AND SOUTH CENTRAL KENTUCKY

CITY           SKY/WX    TMP DP  RH WIND       PRES   REMARKS
PADUCAH        CLOUDY    75  63  66 CALM      30.06F
HENDERSON      MOSUNNY   75  63  64 SW3       30.05S
OWENSBORO      PTSUNNY   76  60  57 W9        30.06S
HOPKINSVILLE   PTSUNNY   78  55  46 W6        30.07S
BOWLING GREEN  PTCLDY    78  54  43 NW6       30.07R
GLASGOW        MOCLDY    77  56  48 CALM      30.07S
$$

KYZ024-025-028>034-038-045-046-053-310100-
NORTH CENTRAL KENTUCKY

CITY           SKY/WX    TMP DP  RH WIND       PRES   REMARKS
LOUISVILLE/SDF PTCLDY    78  56  46 W10       30.04S
LOUISVILLE/LOU CLEAR     78  56  46 W8        30.05R
FORT KNOX      PTCLDY    74  62  66 W2        30.05S
$$

KYZ035>037-039>044-047>052-055>060-089>105-310100-
NORTHEAST KENTUCKY

CITY           SKY/WX    TMP DP  RH WIND       PRES   REMARKS
LEXINGTON      CLEAR     76  56  49 W6        30.07R
COVINGTON      MOCLDY    73  59  61 W13       30.05R
FRANKFORT      CLEAR     75  57  53 SW6       30.05S
$$

KYZ054-064>069-076>088-106>120-310100-
SOUTHEAST KENTUCKY

CITY           SKY/WX    TMP DP  RH WIND       PRES   REMARKS
JACKSON        CLEAR     72  60  66 CALM      30.09R
LONDON         PTCLDY    76  57  51 W6        30.09S
SOMERSET       CLEAR     72  57  60 W6        30.09R
MIDDLESBORO    PTCLDY    73  60  64 NW3       30.10R
MONTICELLO     MOCLDY    73  64  73 SW3       30.10S
$$




USA.gov is the U.S. government's official web portal to all federal, state and local government web resources and services.